| time (UTC) | temp F | wind direction | speed knots | gust knots | rain 1hr in | rain 24hr in | rain mn in | humidity % | barometer mb |
| 20260901134000 | 84 | 141 | 0.9 | 2.6 | 0.00 | 0.00 | 0.00 | 67 | 1015.5 |
| 20260901132948 | 83 | 135 | 1.7 | 5.2 | 0.00 | 0.00 | 0.00 | 68 | 1015.5 |
| 20260901131936 | 81 | 105 | 0.9 | 1.7 | 0.00 | 0.00 | 0.00 | 70 | 1015.5 |
| 20260901130925 | 79 | 121 | 0.9 | 1.7 | 0.00 | 0.00 | 0.00 | 73 | 1015.5 |
| 20260901123843 | 74 | 128 | 0.9 | 1.7 | 0.00 | 0.00 | 0.00 | 81 | 1015.5 |
| 20260901122825 | 73 | 150 | 0.9 | 1.7 | 0.00 | 0.00 | 0.00 | 84 | 1015.5 |
| 20260901121806 | 72 | 110 | 0.9 | 0.9 | 0.00 | 0.00 | 0.00 | 88 | 1015.5 |
| 20260901120750 | 70 | 101 | 0.9 | 0.9 | 0.00 | 0.00 | 0.00 | 93 | 1015.5 |
| 20260901110604 | 70 | 205 | 0.9 | 0.9 | 0.00 | 0.00 | 0.00 | 95 | 1015.5 |
| 20260901104540 | 69 | 193 | 0.9 | 0.9 | 0.00 | 0.00 | 0.00 | 96 | 1015.5 |
| 20260901102533 | 70 | 145 | 0.9 | 0.9 | 0.00 | 0.00 | 0.00 | 94 | 1015.5 |
| 20260901095524 | 70 | 137 | 0.9 | 0.9 | 0.00 | 0.00 | 0.00 | 93 | 1015.5 |
| 20260901094511 | 70 | 167 | 0.9 | 0.9 | 0.00 | 0.00 | 0.00 | 93 | 1015.5 |
| 20260901093500 | 71 | 152 | 0.9 | 0.9 | 0.00 | 0.00 | 0.00 | 92 | 1015.5 |
| 20260901092448 | 71 | 196 | 0.9 | 0.9 | 0.00 | 0.00 | 0.00 | 92 | 1015.5 |
| 20260901091436 | 71 | 224 | 0.9 | 0.9 | 0.00 | 0.00 | 0.00 | 92 | 1015.5 |
| 20260901085413 | 71 | 162 | 0.0 | 0.9 | 0.00 | 0.00 | 0.00 | 90 | 1015.5 |
| 20260901084402 | 71 | 288 | 0.9 | 0.9 | 0.00 | 0.00 | 0.00 | 90 | 1015.5 |
| 20260901083350 | 71 | 324 | 0.9 | 0.9 | 0.00 | 0.00 | 0.00 | 91 | 1015.5 |
| 20260901082338 | 72 | 149 | 0.9 | 0.9 | 0.00 | 0.00 | 0.00 | 91 | 1015.5 |
| 20260901081327 | 72 | 230 | 0.9 | 0.9 | 0.00 | 0.00 | 0.00 | 90 | 1015.5 |
| 20260901080315 | 72 | 214 | 0.9 | 0.9 | 0.00 | 0.00 | 0.00 | 87 | 1015.5 |
| 20260901075307 | 72 | 307 | 0.9 | 0.9 | 0.00 | 0.00 | 0.00 | 86 | 1015.5 |
| 20260901074252 | 72 | 288 | 0.9 | 0.9 | 0.00 | 0.00 | 0.00 | 86 | 1015.5 |
| 20260901070207 | 73 | 303 | 0.9 | 0.9 | 0.00 | 0.00 | 0.00 | 84 | 1015.5 |
| 20260901065154 | 74 | 228 | 0.9 | 0.9 | 0.00 | 0.00 | 0.00 | 84 | 1015.5 |
| 20260901064143 | 74 | 317 | 0.9 | 0.9 | 0.00 | 0.00 | 0.00 | 83 | 1015.5 |
| 20260901063131 | 74 | 48 | 0.9 | 0.9 | 0.00 | 0.00 | 0.00 | 82 | 1015.5 |
| 20260901062121 | 75 | 141 | 0.9 | 1.7 | 0.00 | 0.00 | 0.00 | 81 | 1015.5 |
| 20260901060057 | 76 | 148 | 1.7 | 2.6 | 0.00 | 0.00 | 0.00 | 79 | 1015.5 |
| 20260901054050 | 76 | 156 | 1.7 | 2.6 | 0.00 | 0.00 | 0.00 | 79 | 1015.5 |
| 20260901053039 | 76 | 152 | 1.7 | 2.6 | 0.00 | 0.00 | 0.00 | 79 | 1015.5 |
| 20260901052027 | 76 | 150 | 1.7 | 2.6 | 0.00 | 0.00 | 0.00 | 80 | 1015.5 |
| 20260901051015 | 76 | 149 | 1.7 | 2.6 | 0.00 | 0.00 | 0.00 | 80 | 1015.5 |
| 20260901043941 | 77 | 153 | 1.7 | 3.5 | 0.00 | 0.00 | 0.00 | 76 | 1015.5 |
| 20260901041918 | 78 | 155 | 2.6 | 3.5 | 0.00 | 0.00 | 0.00 | 75 | 1015.5 |
| 20260901040906 | 78 | 154 | 2.6 | 2.6 | 0.00 | 0.00 | 0.00 | 74 | 1015.5 |
| 20260901035855 | 79 | 151 | 2.6 | 4.3 | 0.00 | 0.00 | 0.00 | 73 | 1015.5 |
| 20260901034843 | 79 | 154 | 2.6 | 4.3 | 0.00 | 0.00 | 0.00 | 72 | 1015.5 |
| 20260901033831 | 79 | 152 | 2.6 | 4.3 | 0.00 | 0.00 | 0.00 | 71 | 1015.5 |
| 20260901032820 | 80 | 152 | 3.5 | 5.2 | 0.00 | 0.00 | 0.00 | 71 | 1015.5 |
| 20260901031808 | 80 | 150 | 2.6 | 4.3 | 0.00 | 0.00 | 0.00 | 70 | 1015.5 |
| 20260901030757 | 80 | 153 | 2.6 | 3.5 | 0.00 | 0.00 | 0.00 | 70 | 1015.5 |
| 20260901024734 | 80 | 151 | 2.6 | 5.2 | 0.00 | 0.00 | 0.00 | 70 | 1015.5 |
| 20260901021714 | 80 | 152 | 2.6 | 3.5 | 0.00 | 0.00 | 0.00 | 72 | 1015.5 |
| 20260901020703 | 79 | 154 | 1.7 | 2.6 | 0.00 | 0.00 | 0.00 | 74 | 1015.5 |
| 20260901015651 | 79 | 150 | 1.7 | 2.6 | 0.00 | 0.00 | 0.00 | 75 | 1015.5 |
| 20260901013644 | 80 | 158 | 1.7 | 1.7 | 0.00 | 0.00 | 0.00 | 74 | 1015.5 |
| 20260901012633 | 80 | 160 | 0.9 | 1.7 | 0.00 | 0.00 | 0.00 | 72 | 1015.5 |
| 20260901011622 | 81 | 163 | 0.9 | 1.7 | 0.00 | 0.00 | 0.00 | 72 | 1015.5 |
| 20260901010610 | 81 | 160 | 0.9 | 1.7 | 0.00 | 0.00 | 0.00 | 71 | 1015.5 |
| 20260901004604 | 82 | 148 | 0.9 | 2.6 | 0.00 | 0.00 | 0.00 | 71 | 1017.0 |
| 20260901003552 | 83 | 153 | 0.9 | 1.7 | 0.00 | 0.00 | 0.00 | 69 | 1017.0 |
| 20260901002540 | 85 | 191 | 0.9 | 0.9 | 0.00 | 0.00 | 0.00 | 64 | 1017.0 |
| 20260901001529 | 87 | 199 | 0.9 | 1.7 | 0.00 | 0.00 | 0.00 | 59 | 1017.0 |
| 20260901000517 | 88 | 176 | 0.9 | 1.7 | 0.00 | 0.00 | 0.00 | 56 | 1017.0 |
| 20260831235506 | 89 | 166 | 1.7 | 4.3 | 0.00 | 0.00 | 0.00 | 54 | 1017.0 |
| 20260831234454 | 89 | 157 | 2.6 | 5.2 | 0.00 | 0.00 | 0.00 | 53 | 1017.0 |
| 20260831233442 | 90 | 154 | 1.7 | 5.2 | 0.00 | 0.00 | 0.00 | 54 | 1017.0 |
| 20260831232430 | 90 | 159 | 1.7 | 4.3 | 0.00 | 0.00 | 0.00 | 52 | 1017.0 |
| 20260831231419 | 91 | 151 | 2.6 | 7.0 | 0.00 | 0.00 | 0.00 | 50 | 1017.0 |
| 20260831230406 | 91 | 151 | 2.6 | 7.8 | 0.00 | 0.00 | 0.00 | 51 | 1017.0 |
| 20260831223331 | 93 | 146 | 2.6 | 7.8 | 0.00 | 0.00 | 0.00 | 47 | 1017.0 |
| 20260831222320 | 93 | 146 | 3.5 | 8.7 | 0.00 | 0.00 | 0.00 | 45 | 1017.0 |
| 20260831220256 | 94 | 147 | 2.6 | 7.8 | 0.00 | 0.00 | 0.00 | 43 | 1017.0 |
| 20260831215245 | 94 | 148 | 3.5 | 7.0 | 0.00 | 0.00 | 0.00 | 43 | 1017.0 |
| 20260831214234 | 95 | 148 | 2.6 | 7.8 | 0.00 | 0.00 | 0.00 | 42 | 1017.0 |
| 20260831213222 | 96 | 157 | 1.7 | 6.1 | 0.00 | 0.00 | 0.00 | 41 | 1017.0 |
| 20260831212210 | 96 | 150 | 2.6 | 8.7 | 0.00 | 0.00 | 0.00 | 42 | 1017.0 |
| 20260831211158 | 97 | 148 | 1.7 | 7.8 | 0.00 | 0.00 | 0.00 | 40 | 1017.0 |
| 20260831210146 | 97 | 147 | 1.7 | 6.1 | 0.00 | 0.00 | 0.00 | 41 | 1017.0 |
| 20260831205135 | 97 | 136 | 1.7 | 5.2 | 0.00 | 0.00 | 0.00 | 41 | 1017.0 |
| 20260831204123 | 96 | 152 | 2.6 | 7.0 | 0.00 | 0.00 | 0.00 | 43 | 1017.0 |
| 20260831203112 | 97 | 152 | 2.6 | 8.7 | 0.00 | 0.00 | 0.00 | 41 | 1017.0 |
| 20260831202100 | 96 | 149 | 2.6 | 7.8 | 0.00 | 0.00 | 0.00 | 41 | 1017.0 |
| 20260831201049 | 96 | 141 | 4.3 | 8.7 | 0.00 | 0.00 | 0.00 | 42 | 1017.0 |
| 20260831200037 | 96 | 134 | 3.5 | 7.8 | 0.00 | 0.00 | 0.00 | 39 | 1017.0 |
| 20260831193009 | 98 | 157 | 1.7 | 4.3 | 0.00 | 0.00 | 0.00 | 35 | 1017.0 |
| 20260831191957 | 97 | 134 | 2.6 | 7.8 | 0.00 | 0.00 | 0.00 | 40 | 1017.0 |
| 20260831190946 | 98 | 152 | 1.7 | 7.8 | 0.00 | 0.00 | 0.00 | 38 | 1017.0 |
| 20260831185934 | 96 | 142 | 3.5 | 8.7 | 0.00 | 0.00 | 0.00 | 40 | 1017.0 |
| 20260831184922 | 98 | 50 | 1.7 | 6.1 | 0.00 | 0.00 | 0.00 | 39 | 1017.0 |
| 20260831183911 | 98 | 357 | 0.9 | 3.5 | 0.00 | 0.00 | 0.00 | 38 | 1017.0 |
| 20260831182900 | 96 | 136 | 2.6 | 7.0 | 0.00 | 0.00 | 0.00 | 42 | 1017.0 |
| 20260831181848 | 97 | 144 | 1.7 | 4.3 | 0.00 | 0.00 | 0.00 | 39 | 1017.0 |
| 20260831180836 | 97 | 131 | 1.7 | 6.1 | 0.00 | 0.00 | 0.00 | 41 | 1017.0 |
| 20260831175825 | 96 | 185 | 1.7 | 4.3 | 0.00 | 0.00 | 0.00 | 40 | 1017.0 |
| 20260831174813 | 95 | 144 | 2.6 | 7.0 | 0.00 | 0.00 | 0.00 | 41 | 1017.0 |
| 20260831173801 | 95 | 128 | 1.7 | 6.1 | 0.00 | 0.00 | 0.00 | 42 | 1017.0 |
| 20260831172750 | 95 | 143 | 1.7 | 5.2 | 0.00 | 0.00 | 0.00 | 41 | 1017.0 |
| 20260831171738 | 94 | 153 | 2.6 | 9.6 | 0.00 | 0.00 | 0.00 | 44 | 1017.0 |
| 20260831170726 | 94 | 145 | 1.7 | 5.2 | 0.00 | 0.00 | 0.00 | 44 | 1017.0 |
| 20260831165715 | 93 | 143 | 1.7 | 5.2 | 0.00 | 0.00 | 0.00 | 46 | 1017.0 |
| 20260831164703 | 94 | 168 | 1.7 | 6.1 | 0.00 | 0.00 | 0.00 | 45 | 1017.0 |
| 20260831163652 | 93 | 288 | 1.7 | 6.1 | 0.00 | 0.00 | 0.00 | 43 | 1017.0 |
| 20260831161629 | 93 | 173 | 1.7 | 5.2 | 0.00 | 0.00 | 0.00 | 44 | 1017.0 |
| 20260831160617 | 93 | 136 | 1.7 | 4.3 | 0.00 | 0.00 | 0.00 | 46 | 1017.0 |
| 20260831155605 | 92 | 170 | 1.7 | 4.3 | 0.00 | 0.00 | 0.00 | 45 | 1017.0 |
| 20260831154554 | 91 | 148 | 1.7 | 7.0 | 0.00 | 0.00 | 0.00 | 47 | 1017.0 |
| 20260831153542 | 91 | 142 | 1.7 | 5.2 | 0.00 | 0.00 | 0.00 | 47 | 1017.0 |
| 20260831152531 | 90 | 161 | 1.7 | 5.2 | 0.00 | 0.00 | 0.00 | 48 | 1017.0 |
| 20260831150525 | 89 | 150 | 1.7 | 5.2 | 0.00 | 0.00 | 0.00 | 47 | 1017.0 |
| 20260831143450 | 87 | 152 | 2.6 | 7.0 | 0.00 | 0.00 | 0.00 | 51 | 1017.0 |
| 20260831142451 | 86 | 151 | 1.7 | 7.8 | 0.00 | 0.00 | 0.00 | 51 | 1017.0 |
| 20260831141440 | 85 | 156 | 2.6 | 6.1 | 0.00 | 0.00 | 0.00 | 52 | 1017.0 |
| 20260831135417 | 83 | 136 | 1.7 | 4.3 | 0.00 | 0.00 | 0.00 | 57 | 1017.0 |